{"data":{"norad_id":65865,"epoch":"2026-09-20T22:38:30.087456Z","epoch_age_seconds":67735,"freshness":"FRESH","line1":"1 65865U 25223M   26263.94340379  .00013855  00000+0  42040-3 0  9996","line2":"2 65865  53.1528 103.4263 0002871  86.9373 273.1958 15.34402221 54153","mean_motion":15.34402221,"eccentricity":0.0002871,"inclination_deg":53.1528,"raan_deg":103.4263,"arg_perigee_deg":86.9373,"mean_anomaly_deg":273.1958,"bstar":0.0004204,"rev_number":5415,"period_min":93.847622239593,"perigee_km":460.73263559728,"apogee_km":464.66064227275,"semimajor_km":6840.833638935,"source":"CELESTRAK","updated_at":"2026-09-21T09:00:35.727510Z"}}